sat.trackr.live / text

‹ back to catalog

STARLINK-36784

NORAD 67877 · 2026-034AD

PAYLOAD ACTIVE UNKNOWN

§ Identity

Operator
Country
US
Launch date
2026-02-20
Launch site
AFETR
Launch vehicle
Mass (kg)
RCS (m²)

Purposes: comms

External: N2YO · Heavens-Above · Gunter

§ Orbital elements

Epoch: 2026-05-25T04:44:04.318080Z

Period
94.16 min
Inclination
53.1577°
Eccentricity
0.0000563
Mean motion
15.29373114 rev/d
Perigee alt
477.3 km
Apogee alt
478.1 km
Semi-major
6,855.8 km
B*
7.9178e-4
RAAN
209.2961°
Arg perigee
52.1071°
Mean anomaly
307.9980°
Rev number
1,574

§ Raw data

STARLINK-367841 67877U 26034AD  26145.19727220  .00022573  00000+0  79178-3 0  99912 67877  53.1577 209.2961 0000563  52.1071 307.9980 15.29373114 15743

JSON: /api/v1/satellites/67877 · /tle

For live sub-satellite position, see the globe view (requires WebGL).

§ Visibility from observer

Set your observer location to see the next 7 days of passes ≥ 10°. The values pass through the URL so the page stays shareable.

No JS? Fill the form by hand. The geolocation button needs JavaScript.